{"data":{"norad_id":65270,"intl_designator":"2025-182D","name":"COSMOS 2594","alt_names":[],"object_type":"PAYLOAD","status":"ACTIVE","operator":null,"country":"CIS","launch_date":"2025-08-21","launch_site_code":"PLMSC","launch_vehicle":null,"mission":null,"orbit_class":"UNKNOWN","rcs_meters":null,"size_class":null,"mass_kg":null,"dimensions":null,"purposes":[],"wikipedia_slug":null,"has_3d_model":false,"image_url":null,"decayed_at":null,"tle_current":{"epoch":"2026-05-25T03:34:25.574304Z","epoch_age_seconds":72745,"freshness":"FRESH","line1":"1 65270U 25182D   26145.14890711  .00001236  18523-5  43788-5 0  9998","line2":"2 65270  96.5868  76.7212 0003911 179.9256 180.2023 15.96419814 44037","mean_motion":15.96419814,"eccentricity":0.0003911,"inclination_deg":96.5868,"raan_deg":76.7212,"arg_perigee_deg":179.9256,"mean_anomaly_deg":180.2023,"bstar":4.3788e-6,"rev_number":4403,"period_min":90.201837096467,"perigee_km":281.7554512628,"apogee_km":286.96685731908,"semimajor_km":6662.4981542909,"source":"CELESTRAK","updated_at":"2026-05-25T13:38:05.286882Z"}}}